Regional Weather Roundup
Issued by NWS

Home | Current Version | Previous Version | Graphics & Text | Print | Product List | Glossary On
Versions: 1 2 3 4 5 6 7 8 9 10 11 12 13 14 15 16 17 18 19 20 21 22 23 24 25 26 27 28 29 30 31 32 33 34 35 36 37 38 39 40 41 42 43 44 45 46 47 48 49 50
000
ASUS45 KPSR 251610
RWRAZ

ARIZONA REGIONAL HOURLY WEATHER ROUNDUP
NATIONAL WEATHER SERVICE PHOENIX AZ
900 AM MST SAT OCT 25 2014

NOTE: FAIR INDICATES FEW OR NO CLOUDS BELOW 12,000 FEET WITH NO
SIGNIFICANT WEATHER AND/OR OBSTRUCTIONS TO VISIBILITY.

AZZ001>003-036-251700-
NORTHWEST ARIZONA

CITY           SKY/WX    TMP DP  RH WIND       PRES   REMARKS
BULLHEAD CITY  MOSUNNY   72  41  33 CALM      30.04R
KINGMAN        SUNNY     72  43  35 SE3       30.15R
$$

AZZ004>008-015-016-018-251700-
NORTH CENTRAL ARIZONA

CITY           SKY/WX    TMP DP  RH WIND       PRES   REMARKS
GRAND CANYON   SUNNY     61  40  45 S7        30.35S
PRESCOTT       SUNNY     61  41  47 CALM      30.27R
FLAGSTAFF      SUNNY     60  40  47 SW8       30.39R
PAYSON         SUNNY     68  45  42 E3        30.31S
PAGE           SUNNY     60  32  34 NW6       30.24R
$$

AZZ009>014-017-251700-
NORTHEAST ARIZONA

CITY           SKY/WX    TMP DP  RH WIND       PRES   REMARKS
WINSLOW        SUNNY     60  38  43 E8        30.31R
SAINT JOHNS    SUNNY     57  38  48 CALM      30.34S
WINDOW ROCK    SUNNY     52  28  39 CALM      30.40R
SHOW LOW       SUNNY     64  39  39 S9        30.39S
$$

AZZ023-251700-
GREATER PHOENIX AREA

CITY           SKY/WX    TMP DP  RH WIND       PRES   REMARKS
PHOENIX        PTSUNNY   79  49  34 E10       30.03R
BUCKEYE          N/A     75  52  43 SE7       30.04S
GLENDALE       MOSUNNY   75  50  41 CALM      30.05R
LUKE AFB       SUNNY    N/A N/A N/A N1          N/A
DEER VALLEY    PTSUNNY   76  48  37 W3        30.05R
SCOTTSDALE     MOSUNNY   76  50  40 CALM      30.07R
MESA-FALCON    MOSUNNY   73  46  38 NE9       30.06
MESA-GATEWAY   MOSUNNY   75  52  43 CALM      30.08R
CHANDLER       MOSUNNY   73  54  49 S5        30.06R
$$

AZZ027-028-251700-
SOUTHWEST MARICOPA COUNTY AND PINAL COUNTY

CITY           SKY/WX    TMP DP  RH WIND       PRES   REMARKS
CASA GRANDE    SUNNY     73  48  40 CALM      30.06S
$$

AZZ503-504-507>509-251700-
SOUTHEAST ARIZONA

CITY           SKY/WX    TMP DP  RH WIND       PRES   REMARKS
TUCSON         SUNNY     73  48  41 S5        30.15R
DAVIS-MONTHAN  SUNNY     77  47  35 E6        30.13S
RYAN FIELD       N/A     72  52  49 E123      30.14R
NOGALES        SUNNY     69  48  47 CALM      30.21R
SIERRA VISTA   SUNNY     72  46  39 CALM      30.27R
DOUGLAS        SUNNY     68  48  48 CALM      30.26R
SAFFORD        SUNNY     70  44  39 E10       30.20R
$$

AZZ020-021-025-026-031-251700-
SOUTHWEST ARIZONA

CITY           SKY/WX    TMP DP  RH WIND       PRES   REMARKS
YUMA           MOSUNNY   80  46  30 CALM      29.97R
$$

CAZ031-033-041-043-047-048-061-251700-
SOUTHERN CALIFORNIA

CITY           SKY/WX    TMP DP  RH WIND       PRES   REMARKS
DOWNTOWN L.A.  MOSUNNY   67  58  72 CALM      30.04R
L.A. AIRPORT   PTSUNNY   66  64  92 S3        30.04R
SAN DIEGO      PTSUNNY   70  62  76 CALM      30.06R
BURBANK        SUNNY     66  42  41 CALM      30.04R
ONTARIO        PTSUNNY   71  43  36 CALM      30.05R
RIVERSIDE      PTSUNNY   68  43  40 CALM      30.06R
PALM SPRINGS   MOSUNNY   80  46  30 SW5       30.00R
EL CENTRO NAS  MOSUNNY   77  50  38 W3        29.96R
IMPERIAL       MOSUNNY   77  52  41 SW3       29.96R
BLYTHE         MOSUNNY   76  45  33 CALM      29.99R
NEEDLES        MOSUNNY   75  42  30 E3        30.02R
$$

NVZ020-UTZ003-251700-
SOUTHERN NEVADA-UTAH

CITY           SKY/WX    TMP DP  RH WIND       PRES   REMARKS
LAS VEGAS      MOSUNNY   73  40  30 S12       30.02R
SALT LAKE CITY SUNNY     63  33  32 SE9       30.08S
$$

NMZ009-TXZ055-251700-
NEW MEXICO-WEST TEXAS

CITY           SKY/WX    TMP DP  RH WIND       PRES   REMARKS
ALBUQUERQUE    SUNNY     58  30  34 NW3       30.34R
EL PASO        SUNNY     67  49  52 CALM      30.26R
$$


........................KEY........................
SKY/WX - SKY CONDITION/WEATHER
TMP    - TEMPERATURE IN FAHRENHEIT
DP     - DEW POINT IN FAHRENHEIT
RH     - RELATIVE HUMIDITY IN PERCENT
WIND   - DIRECTION AND SPEED IN MILES PER HOUR (MPH)
VRB    - VARIABLE WIND DIRECTION
PRES   - MEAN SEA LEVEL PRESSURE IN INCHES OF MERCURY
         F - FALLING PRESSURE   R - RISING PRESSURE
         S - STEADY PRESSURE
VSB    - VISIBILITY IN MILES
HX     - HEAT INDEX IN FAHRENHEIT
WCI    - WIND CHILL INDEX IN FAHRENHEIT
TC     - TEMPERATURE IN CELSIUS WHICH IS ALSO KNOWN AS
         TEMPERATURE IN CENTIGRADE
AFB    - AIR FORCE BASE
         LUKE AFB IS LUKE AIR FORCE BASE
         DAVIS-MONTHAN IS DAVIS-MONTHAN AIR FORCE BASE
NAS    - NAVAL AIR STATION
         EL CENTRO NAS IS EL CENTRO NAVAL AIR STATION
N/A    - NOT AVAILABLE



USA.gov is the U.S. government's official web portal to all federal, state and local government web resources and services.